User: anonymous   Login
Location: Unspecified
(0.0000°N, 0.0000°E)
Time: 12:18:07
(UTC+00:00)
Language:

USA 268 - Orbit

View from above orbital plane
View from above orbital plane
View from above satellite
View from above satellite

Ground track
Ground track

The orbit data is extracted from the following two-line orbital elements,

1 41584U 16036A   17141.00635109 0.00000000  00000-0  00000-0 0    09
2 41584   7.3541 352.6201 0058778  57.6871 302.8930  1.00184000    01
Epoch (UTC): 21 May 2017 00:09:08
Eccentricity: 0.0058778
inclination: 7.3541°
perigee height: 35563 km
apogee height: 36059 km
right ascension of ascending node: 352.6201°
argument of perigee: 57.6871°
revolutions per day: 1.00184000
mean anomaly at epoch: 302.8930°
orbit number at epoch: 0

The dashed part of the orbit path shows where the satellite is in the earth's shadow,  

DLR